Location: DARK SKY Beskydy - Park tmavé oblohy, www.darkskybeskydy.cz
(49.4926°N, 18.5016°E)
Time: 18:37:30
(UTC+02:00)

PCSat - Pass Details

Date: 08 August 2024
Orbit: 781 x 793 km, 67.1° (Epoch: 08 September)

Event Time Altitude Azimuth Distance (km) Brightness Sun altitude
Rises 00:23:00 0° 323° (NW) 3,300 13.7 -24.1°
Reaches altitude 10° 00:26:14 10° 342° (NNW) 2,369 13.1 -24.2°
Maximum altitude 00:29:55 18° 25° (NNE) 1,867 12.2 -24.3°
Drops below altitude 10° 00:33:34 10° 68° (ENE) 2,365 12.2 -24.3°
Sets 00:36:47 0° 87° (E) 3,291 12.8 -24.4°
